STARLINK-32432 (61257 NORAD) Tracking and Keplerian Element Data

This shows tracking and keplerian element data for the satellite.

Feedback or suggestion? Click here.




ElementValue
Catalog61257
NameSTARLINK-32432
Epoch Orbit402
Epoch Day286.91668981
Epoch Year2024
RAAN65.214
Inclination53.159
Eccentricity0.0001426
Argument of Perigee59.3594
Mean Anonmoly313.9697
Mean Motion15.73704581
Decay Rate0.00064195
L11 61257U 24175Q 24286.91668981 .00064195 00000+0 44851-3 0 9999
L22 61257 53.1590 65.2140 0001426 59.3594 313.9697 15.73704581 4027



Live tracking and technical data element details for STARLINK-32432 (NORAD 61257). STARLINK-32432 can be tracked NOW for your location showing map with azimuth and elevation plus other details from your city location.







IsCatalogInMostPopularTable: catalog: 61257, numindb: 24
Update: records affected: 1



GetName: 61257 STARLINK-32432

Hit Count: updated at: Wed, 04 Dec 2024 13:19:53 GMT